Location: *
(48.8667°N, 2.3331°E)
Time: 10:42:46
(UTC+00:00)

Cosmos 1833 Rocket - Pass Details

Date: 09 April 2020
Orbit: 834 x 838 km, 71.0° (Epoch: 24 May)

Event Time Altitude Azimuth Distance (km) Brightness Sun altitude
Exits shadow 22:20:45 50° 264° (W) 1,063 3.2 -29.7°
Maximum altitude 22:21:44 57° 303° (WNW) 984 3.2 -29.8°
Drops below altitude 10° 22:27:18 10° 22° (NNE) 2,461 5.6 -30.2°
Sets 22:29:48 0° 27° (NNE) 3,399 6.4 -30.3°
